Weather History for KGRI - May, 2011

Change the Weather History Date:

Sunday, May 8, 2011

  Actual Average Record
Temperature  
Mean Temperature 74 °F 58 °F  
Max Temperature 90 °F 70 °F 98 °F (1934)
Min Temperature 57 °F 47 °F 26 °F (1980)
Degree Days  
Heating Degree Days 0 7  
Month to date heating degree days 63 68  
Since 1 July heating degree days 6192 6070  
Cooling Degree Days 9 1  
Month to date cooling degree days 11 8  
Year to date cooling degree days 17 19  
Growing Degree Days 23 (Base 50)    
Moisture  
Dew Point 56 °F    
Average Humidity 59    
Maximum Humidity 80    
Minimum Humidity 37    
Precipitation  
Precipitation 0.00 in 0.13 in 1.29 in (1950)
Month to date precipitation 0.01 1.00  
Year to date precipitation 5.73 6.54  
Snow  
Snow 0.00 in 0.00 in T in (1950)
Month to date snowfall 0.0 0.1  
Since 1 July snowfall 32.8 29.1  
Snow Depth 0.00 in    
Sea Level Pressure  
Sea Level Pressure 29.58 in    
Wind  
Wind Speed 18 mph (SE)    
Max Wind Speed 32 mph    
Max Gust Speed 44 mph    
Visibility 10 miles    
Events      
T = Trace of Precipitation, MM = Missing Value Source: NWS Daily Summary

Daily Weather History Graph

Daily Weather History Graph

Search for Another Location

Airport or City:

Trip Planner

Search our weather history database for the weather conditions in past years. The results will help you decide how hot, cold, wet, or windy it might be!

Date:

Astronomy

May. 08, 2011 Rise Set
Actual Time 6:23 AM CDT 8:36 PM CDT
Civil Twilight 5:52 AM CDT 9:07 PM CDT
Nautical Twilight 5:15 AM CDT 9:45 PM CDT
Astronomical Twilight 4:33 AM CDT 10:26 PM CDT
Moon 10:43 AM CDT (5/8) 12:49 AM CDT (5/8)
Length of Visible Light 15h 14m
Length of Day
14h 13m
Waxing Crescent, 28% of the Moon is Illuminated
May 8
Waxing Crescent
May 10
First Quarter
May 17
Full
May 24
Last Quarter
Jun 1
New

Hourly Weather History & Observations

Time (CDT) Temp. Heat Index Dew Point Humidity Pressure Visibility Wind Dir Wind Speed Gust Speed Precip Events Conditions
12:53 AM 60.1 °F - 37.0 °F 42% 29.73 in 10.0 mi ESE 6.9 mph - N/A   Clear
1:53 AM 57.9 °F - 39.0 °F 49% 29.74 in 10.0 mi SE 6.9 mph - N/A   Clear
2:53 AM 57.9 °F - 42.1 °F 56% 29.72 in 10.0 mi SE 9.2 mph - N/A   Clear
3:53 AM 59.0 °F - 45.0 °F 60% 29.70 in 10.0 mi SE 12.7 mph - N/A   Clear
4:53 AM 60.1 °F - 48.0 °F 64% 29.71 in 10.0 mi SSE 13.8 mph - N/A   Clear
5:53 AM 60.1 °F - 51.1 °F 72% 29.70 in 10.0 mi SSE 10.4 mph - N/A   Clear
6:53 AM 57.9 °F - 52.0 °F 81% 29.71 in 10.0 mi SE 8.1 mph - N/A   Clear
7:53 AM 61.0 °F - 54.0 °F 78% 29.69 in 10.0 mi SE 10.4 mph - N/A   Clear
8:53 AM 68.0 °F - 57.0 °F 68% 29.67 in 10.0 mi SE 18.4 mph 27.6 mph N/A   Clear
9:53 AM 73.0 °F - 59.0 °F 61% 29.64 in 10.0 mi SE 20.7 mph 25.3 mph N/A   Clear
10:53 AM 77.0 °F - 61.0 °F 58% 29.61 in 10.0 mi SE 20.7 mph 33.4 mph N/A   Clear
11:53 AM 82.0 °F 83.0 °F 62.1 °F 51% 29.58 in 10.0 mi SSE 24.2 mph 39.1 mph N/A   Partly Cloudy
12:53 PM 82.9 °F 83.2 °F 60.1 °F 46% 29.55 in 10.0 mi SSE 26.5 mph 38.0 mph N/A   Unknown
1:53 PM 84.9 °F 84.8 °F 60.1 °F 43% 29.53 in 10.0 mi South 27.6 mph 36.8 mph N/A   Partly Cloudy
2:53 PM 87.1 °F 86.7 °F 60.1 °F 40% 29.49 in 10.0 mi SSE 24.2 mph 38.0 mph N/A   Clear
3:53 PM 89.1 °F 88.2 °F 59.0 °F 36% 29.47 in 10.0 mi SSE 24.2 mph 39.1 mph N/A   Clear
4:53 PM 88.0 °F 87.1 °F 59.0 °F 37% 29.46 in 10.0 mi South 25.3 mph 32.2 mph N/A   Clear
5:53 PM 88.0 °F 87.6 °F 60.1 °F 39% 29.46 in 10.0 mi SSE 20.7 mph 29.9 mph N/A   Partly Cloudy
6:53 PM 87.1 °F 86.5 °F 59.0 °F 39% 29.44 in 10.0 mi SSE 19.6 mph 28.8 mph N/A   Clear
7:53 PM 84.0 °F 84.4 °F 61.0 °F 46% 29.44 in 10.0 mi SSE 17.3 mph - N/A   Clear
8:53 PM 80.1 °F 81.1 °F 61.0 °F 52% 29.44 in 10.0 mi SE 16.1 mph - N/A   Clear
9:53 PM 77.0 °F - 61.0 °F 58% 29.45 in 10.0 mi SE 15.0 mph - N/A   Clear
10:53 PM 75.0 °F - 62.1 °F 64% 29.46 in 10.0 mi SE 15.0 mph 23.0 mph N/A   Clear
11:53 PM 75.0 °F - 63.0 °F 66% 29.43 in 10.0 mi SE 19.6 mph 26.5 mph N/A   Clear